Dati Storici

Data ora Umidita' aria (%) Temperatura aria (°C) Rad globale (W/m²) Gonioanemometro (°) Tacoanemometro (m/s) Pioggia (mm)
25-10-2012 20:10 83.8 % 13.202 2.019 25.121 -0.014 0
25-10-2012 20:00 82.7 % 13.134 1.929 8.839 0.066 0
25-10-2012 19:50 81.1 % 13.254 1.775 97.24 -0.009 0
25-10-2012 19:40 81 % 13.542 1.684 61.42 0.203 0
25-10-2012 19:30 80.4 % 13.686 1.556 68.774 0.319 0
25-10-2012 19:20 80.5 % 13.676 1.505 74.259 0.415 0
25-10-2012 19:10 80.1 % 13.765 1.735 100.922 0.37 0
25-10-2012 19:00 78.5 % 13.658 0.761 198.272 -0.018 0
25-10-2012 18:50 77.3 % 13.793 0.876 98.083 0.262 0
25-10-2012 18:40 76.2 % 14.305 1.504 105.77 0.228 0
25-10-2012 18:30 75.2 % 14.565 1.478 84.531 0.489 0
25-10-2012 18:20 74.4 % 14.77 1.44 202.874 0.249 0
25-10-2012 18:10 72.7 % 14.948 2.953 103.968 0.364 0
25-10-2012 18:00 70.9 % 15.392 5.464 112.386 -0.02 0
25-10-2012 17:50 69.9 % 15.701 11.704 121.105 0.519 0
25-10-2012 17:40 68.4 % 16.247 23.072 100.522 0.344 0
25-10-2012 17:30 67.4 % 16.533 41.305 97.584 0.496 0
25-10-2012 17:20 66.1 % 16.657 56.289 141.325 1.084 0
25-10-2012 17:10 65.5 % 17.118 71.144 111.917 1.157 0
25-10-2012 17:00 64.4 % 17.476 90.156 77.652 0.759 0

I dati sono presentati in modo automatico a scopo informativo. In seguito a verifica i dati possono subire modifiche o essere invalidati e non riportati negli archivi definitivi.